[[{"header":{"parameterUnit":"m.s-1","parameterCategory":1,"la1":30.2991,"la2":30.254,"lo1":-89.0895,"lo2":-89.0444,"dy":0.0017,"dx":0.0017,"nx":28,"ny":28,"refTime":"2025-05-27T21:00:00:Z","depth":0,"parameterNumber":2,"parameterNumberName":"U-component_of_WINDS"},"data":[0,0,0,0,0,0,0,0,0,0,0,0,0,0,0,0,0,0,0,0,0,0,0,0,0,0,0,0,0,0,0,0,0,0,0,0,0,0,0,0,0,0,0,0,0,0,0,0,0,0,0,0,0,0,0,0,0,0,-0.342,-0.3418,0,-0.3238,-0.3236,-0.3234,-0.317,-0.3171,-0.3171,-0.3172,-0.2982,-0.2977,-0.2971,0,0,0,0,0,0,0,0,0,0,0,0,0,-0.3706,-0.3701,-0.342,-0.3418,-0.3416,-0.3239,-0.3236,-0.3234,-0.317,-0.3171,-0.3172,-0.3172,-0.2984,-0.2977,-0.2971,0,0,0,0,0,0,0,0,0,0,0,0,0,-0.3559,-0.37,-0.3421,-0.3363,-0.3356,-0.3239,-0.3236,-0.3233,-0.317,-0.3171,-0.3172,-0.3173,-0.2986,-0.2978,-0.297,-0.2897,0,0,-0.2944,-0.294,0,0,0,0,0,0,0,0,-0.3567,-0.3549,-0.3373,-0.3366,-0.3358,-0.3228,-0.3267,-0.312,-0.3169,-0.324,-0.3172,-0.3173,-0.3063,-0.3048,-0.3012,-0.2888,-0.288,-0.2943,-0.2938,-0.2934,-0.2932,0,0,0,0,0,0,0,-0.3578,-0.3556,-0.3348,-0.3371,-0.3362,-0.3344,-0.3324,-0.3239,-0.3148,-0.3234,-0.3229,-0.3209,-0.3059,-0.302,-0.3007,-0.2877,-0.2943,-0.2936,-0.293,-0.2927,-0.2679,-0.2677,0,0,0,0,0,0,-0.3598,-0.3565,-0.3354,-0.3343,-0.3468,-0.3338,-0.3316,-0.3269,-0.3149,-0.3132,-0.3208,-0.3206,-0.3034,-0.3017,-0.3,-0.2903,-0.2934,-0.2926,-0.2921,-0.268,-0.2678,-0.2677,0,0,0,0,0,0,-0.3605,-0.358,-0.3361,-0.3452,-0.3423,-0.3332,-0.328,-0.3265,-0.3226,-0.3129,-0.3112,-0.3185,-0.3034,-0.3012,-0.2922,-0.2896,-0.2922,-0.2915,-0.2682,-0.268,-0.2678,-0.2712,0,0,0,0,0,0,-0.3613,-0.3583,-0.3556,-0.3452,-0.3419,-0.3289,-0.3278,-0.326,-0.3212,-0.3208,-0.3103,-0.3087,-0.3033,-0.2935,-0.2914,-0.2885,-0.2908,-0.2684,-0.2681,-0.2678,-0.2712,-0.2711,-0.271,0,0,0,0,0,-0.3624,-0.3573,-0.3555,-0.353,-0.3383,-0.3287,-0.3268,-0.3208,-0.321,-0.3181,-0.3118,-0.309,-0.2903,-0.2927,-0.2902,-0.287,-0.2685,-0.2682,-0.2679,-0.2713,-0.2711,-0.271,0,0,0,0,0,0,-0.3676,-0.3559,-0.3537,-0.3452,-0.338,-0.3277,-0.3238,-0.3209,-0.3134,-0.3134,-0.3062,-0.3039,-0.2953,-0.2903,-0.2931,-0.279,-0.2792,-0.2784,-0.2827,-0.2824,-0.2823,-0.2836,-0.2901,0,0,0,0,0,-0.3678,-0.3611,-0.3511,-0.3446,-0.3411,-0.3331,-0.3287,-0.3247,-0.3169,-0.3138,-0.3069,-0.2993,-0.2916,-0.2868,-0.2792,-0.2705,-0.2679,-0.267,-0.2669,-0.2668,-0.2661,-0.2607,-0.2601,-0.2666,-0.2666,-0.2666,0,0,-0.368,-0.3608,-0.357,-0.3454,-0.3394,-0.3324,-0.3306,-0.3234,-0.318,-0.3127,-0.3037,-0.2984,-0.2894,-0.2804,-0.2761,-0.2759,-0.2637,-0.2664,-0.2664,-0.2657,-0.2603,-0.2597,-0.2591,-0.2664,-0.2664,-0.2664,0,0,-0.3649,-0.3589,-0.3526,-0.3465,-0.3374,-0.332,-0.3305,-0.3205,-0.3167,-0.3076,-0.3033,-0.2968,-0.2839,-0.2775,-0.2726,-0.2667,-0.2637,-0.2644,-0.2636,-0.2584,-0.2579,-0.2574,-0.2549,-0.2541,-0.2638,-0.2638,-0.2638,0,-0.3664,-0.3558,-0.3497,-0.3426,-0.3374,-0.3323,-0.3256,-0.32,-0.3088,-0.3053,-0.3053,-0.2887,-0.2823,-0.2715,-0.2701,-0.2664,-0.2641,-0.2656,-0.2585,-0.2579,-0.2574,-0.2549,-0.254,-0.2639,-0.2639,-0.2639,-0.2639,0,-0.3579,-0.3506,-0.3466,-0.3359,-0.3303,-0.3235,-0.316,-0.3111,-0.3075,-0.302,-0.2926,-0.2847,-0.2753,-0.2725,-0.269,-0.2611,-0.2612,-0.2599,-0.2599,-0.257,-0.2545,-0.2536,-0.2641,-0.2641,-0.264,-0.264,0,0,-0.3577,-0.3435,-0.3421,-0.3369,-0.3263,-0.3205,-0.3132,-0.3041,-0.2998,-0.2922,-0.2857,-0.2747,-0.2733,-0.2678,-0.2634,-0.2589,-0.2542,-0.2581,-0.2577,-0.2574,-0.2445,-0.2454,-0.2444,-0.2522,-0.252,-0.2518,-0.2451,0,-0.353,-0.34,-0.334,-0.3235,-0.3165,-0.3113,-0.3049,-0.2976,-0.2922,-0.2853,-0.2793,-0.2715,-0.2705,-0.2671,-0.2623,-0.2558,-0.2515,-0.2562,-0.2458,-0.2455,-0.248,-0.2432,-0.2441,-0.2382,-0.2442,-0.244,-0.2439,0,-0.3458,-0.3381,-0.3269,-0.3167,-0.3136,-0.308,-0.2988,-0.2924,-0.2838,-0.2802,-0.2738,-0.2696,-0.2614,-0.262,-0.2505,-0.2538,-0.2492,-0.2453,-0.2449,-0.2435,-0.2444,-0.2414,-0.2362,-0.2353,-0.2424,-0.2425,-0.2427,0,-0.3464,-0.3333,-0.3247,-0.3206,-0.3086,-0.3047,-0.2995,-0.291,-0.2857,-0.2777,-0.2741,-0.2652,-0.2603,-0.2534,-0.2467,-0.2479,-0.2357,-0.2358,-0.2321,-0.2323,-0.2297,-0.2299,-0.2234,-0.2272,-0.2272,-0.2272,-0.2272,0,-0.3417,-0.335,-0.3248,-0.3196,-0.3117,-0.3048,-0.2972,-0.2916,-0.284,-0.2773,-0.2723,-0.2661,-0.2579,-0.2505,-0.2453,-0.2362,-0.2341,-0.2308,-0.2294,-0.2311,-0.2315,-0.2278,-0.2279,-0.2269,-0.227,-0.227,-0.2271,0,-0.341,-0.334,-0.3243,-0.3137,-0.3108,-0.3055,-0.2962,-0.2907,-0.2851,-0.2767,-0.2743,-0.2653,-0.2564,-0.249,-0.2374,-0.2338,-0.2243,-0.2229,-0.2272,-0.2265,-0.223,-0.2234,-0.2138,-0.212,-0.2172,-0.2172,-0.2172,0,-0.3384,-0.3331,-0.3217,-0.3169,-0.3118,-0.3042,-0.2987,-0.2915,-0.286,-0.2755,-0.2712,-0.2619,-0.2541,-0.24,-0.2323,-0.2232,-0.2213,-0.2186,-0.22,-0.2216,-0.2209,-0.2212,-0.2204,-0.2184,-0.2184,-0.2184,-0.2184,0,-0.3343,-0.331,-0.3234,-0.3144,-0.3079,-0.3005,-0.293,-0.2893,-0.2807,-0.2746,-0.2654,-0.2594,-0.2473,-0.238,-0.228,-0.2224,-0.2188,-0.218,-0.2166,-0.2182,-0.2208,-0.219,-0.2266,-0.2183,-0.2183,-0.2183,-0.2183,-0.2183,-0.3324,-0.3272,-0.3184,-0.3099,-0.3034,-0.2963,-0.2905,-0.284,-0.2763,-0.2659,-0.2621,-0.2526,-0.2436,-0.2299,-0.2241,-0.2163,-0.216,-0.2141,-0.2135,-0.2131,-0.2131,-0.2222,-0.2145,-0.2145,-0.2145,-0.2145,-0.2145,0,-0.3278,-0.3217,-0.314,-0.3035,-0.2967,-0.294,-0.2854,-0.2798,-0.2715,-0.2635,-0.2558,-0.245,-0.2358,-0.2273,-0.2176,-0.213,-0.2111,-0.2107,-0.2108,-0.2095,-0.2142,-0.2162,-0.2124,-0.2124,-0.2124,-0.2124,-0.2124,-0.2124,-0.3246,-0.3156,-0.3112,-0.2988,-0.2927,-0.2834,-0.2786,-0.2719,-0.2654,-0.2536,-0.2459,-0.2404,-0.232,-0.2217,-0.213,-0.2107,-0.2072,-0.2072,-0.2044,-0.2089,-0.2092,-0.2095,-0.2114,-0.2066,-0.2065,-0.2003,-0.2002,-0.2002]},{"header":{"parameterUnit":"m.s-1","parameterCategory":1,"la1":30.2991,"la2":30.254,"lo1":-89.0895,"lo2":-89.0444,"dy":0.0017,"dx":0.0017,"nx":28,"ny":28,"refTime":"2025-05-27T21:00:00:Z","depth":0,"parameterNumber":3,"parameterNumberName":"V-component_of_WINDS"},"data":[0,0,0,0,0,0,0,0,0,0,0,0,0,0,0,0,0,0,0,0,0,0,0,0,0,0,0,0,0,0,0,0,0,0,0,0,0,0,0,0,0,0,0,0,0,0,0,0,0,0,0,0,0,0,0,0,0,0,-0.5432,-0.5431,0,-0.528,-0.5278,-0.5277,-0.5275,-0.5277,-0.5279,-0.5281,-0.5116,-0.511,-0.5104,0,0,0,0,0,0,0,0,0,0,0,0,0,-0.5711,-0.5706,-0.5432,-0.5431,-0.5429,-0.528,-0.5278,-0.5276,-0.5275,-0.5277,-0.5279,-0.5282,-0.5118,-0.5111,-0.5103,0,0,0,0,0,0,0,0,0,0,0,0,0,-0.5577,-0.5704,-0.5433,-0.541,-0.5407,-0.5281,-0.5278,-0.5276,-0.5274,-0.5277,-0.528,-0.5283,-0.512,-0.5111,-0.5102,-0.4986,0,0,-0.5074,-0.507,0,0,0,0,0,0,0,0,-0.5585,-0.5567,-0.5415,-0.5412,-0.5407,-0.53,-0.5316,-0.5178,-0.5273,-0.5324,-0.5281,-0.5284,-0.5174,-0.5161,-0.5125,-0.4978,-0.4971,-0.5073,-0.5067,-0.5063,-0.5061,0,0,0,0,0,0,0,-0.5594,-0.5573,-0.5372,-0.5413,-0.5408,-0.5404,-0.5388,-0.529,-0.5234,-0.532,-0.532,-0.5302,-0.5172,-0.5134,-0.5121,-0.4969,-0.5073,-0.5065,-0.5059,-0.5056,-0.4711,-0.4708,0,0,0,0,0,0,-0.5609,-0.5581,-0.5377,-0.5367,-0.5505,-0.5397,-0.5379,-0.5331,-0.5235,-0.5224,-0.53,-0.5302,-0.5149,-0.5132,-0.5116,-0.4968,-0.5063,-0.5055,-0.5049,-0.4715,-0.4711,-0.4707,0,0,0,0,0,0,-0.5615,-0.5591,-0.5383,-0.5474,-0.5447,-0.5389,-0.5335,-0.5327,-0.5289,-0.522,-0.5209,-0.5272,-0.515,-0.5129,-0.5017,-0.4963,-0.505,-0.5042,-0.4719,-0.4714,-0.4709,-0.4675,0,0,0,0,0,0,-0.5623,-0.5593,-0.5551,-0.5473,-0.5443,-0.529,-0.5332,-0.5321,-0.5273,-0.5276,-0.5191,-0.5179,-0.5151,-0.5031,-0.5008,-0.4951,-0.5035,-0.4724,-0.4717,-0.471,-0.4681,-0.467,-0.466,0,0,0,0,0,-0.5633,-0.5547,-0.5549,-0.5525,-0.5389,-0.5287,-0.5269,-0.5241,-0.5269,-0.5224,-0.5179,-0.5182,-0.4973,-0.502,-0.4994,-0.4933,-0.4727,-0.4719,-0.4711,-0.4686,-0.4672,-0.466,0,0,0,0,0,0,-0.5619,-0.5537,-0.5538,-0.5425,-0.5363,-0.5288,-0.523,-0.5228,-0.5155,-0.516,-0.5125,-0.5105,-0.4993,-0.4953,-0.5006,-0.4812,-0.4853,-0.4839,-0.4843,-0.4829,-0.4819,-0.4828,-0.5027,0,0,0,0,0,-0.5603,-0.553,-0.5462,-0.5368,-0.5337,-0.5289,-0.5244,-0.5227,-0.516,-0.5133,-0.5081,-0.5013,-0.4932,-0.4879,-0.4801,-0.4676,-0.4654,-0.4621,-0.4611,-0.4603,-0.459,-0.4514,-0.4497,-0.4681,-0.4681,-0.4681,0,0,-0.5568,-0.5515,-0.547,-0.5364,-0.5314,-0.5235,-0.5267,-0.5184,-0.5123,-0.512,-0.5011,-0.497,-0.4891,-0.4772,-0.4716,-0.4734,-0.4534,-0.4592,-0.4586,-0.4577,-0.4504,-0.4487,-0.4472,-0.4675,-0.4676,-0.4677,0,0,-0.5464,-0.5419,-0.5333,-0.5283,-0.5207,-0.5175,-0.5155,-0.5078,-0.5051,-0.4942,-0.4936,-0.4862,-0.4725,-0.4667,-0.462,-0.4491,-0.4488,-0.4466,-0.4409,-0.4336,-0.4321,-0.4308,-0.4256,-0.4238,-0.4454,-0.4454,-0.4454,0,-0.5429,-0.5313,-0.5289,-0.5204,-0.5154,-0.5151,-0.506,-0.5012,-0.4914,-0.4877,-0.4901,-0.4724,-0.4672,-0.4535,-0.4503,-0.4468,-0.4438,-0.4474,-0.4326,-0.4313,-0.43,-0.425,-0.4231,-0.4452,-0.4452,-0.4452,-0.4453,0,-0.5271,-0.5191,-0.5131,-0.5037,-0.4981,-0.4894,-0.4852,-0.4798,-0.4786,-0.475,-0.4635,-0.4572,-0.4478,-0.4446,-0.4433,-0.4306,-0.4318,-0.4335,-0.4373,-0.428,-0.4232,-0.4213,-0.4448,-0.4449,-0.445,-0.445,0,0,-0.5153,-0.5046,-0.5023,-0.4978,-0.4894,-0.4829,-0.474,-0.465,-0.4601,-0.4534,-0.4454,-0.4336,-0.4349,-0.4295,-0.4275,-0.4212,-0.4106,-0.4235,-0.4232,-0.4208,-0.3954,-0.3939,-0.3918,-0.4105,-0.4102,-0.4099,-0.3959,0,-0.5035,-0.4879,-0.4853,-0.4714,-0.4636,-0.4629,-0.4551,-0.4488,-0.4451,-0.4376,-0.4335,-0.4249,-0.4276,-0.4243,-0.4181,-0.4132,-0.4053,-0.4143,-0.4025,-0.4021,-0.404,-0.3894,-0.3878,-0.3749,-0.394,-0.3937,-0.3935,0,-0.4877,-0.4805,-0.4659,-0.4581,-0.4547,-0.4477,-0.439,-0.4321,-0.4247,-0.4224,-0.4163,-0.415,-0.4051,-0.4098,-0.3959,-0.402,-0.397,-0.3938,-0.3933,-0.3916,-0.3969,-0.3868,-0.3708,-0.3686,-0.3906,-0.3909,-0.3911,0,-0.4797,-0.4665,-0.4559,-0.4521,-0.4429,-0.4379,-0.4337,-0.4267,-0.4213,-0.4136,-0.41,-0.4012,-0.3963,-0.3893,-0.3854,-0.3893,-0.3715,-0.376,-0.3688,-0.3688,-0.3647,-0.3649,-0.3471,-0.3624,-0.3625,-0.3625,-0.3625,0,-0.4666,-0.4575,-0.4521,-0.4455,-0.4351,-0.4321,-0.4218,-0.4177,-0.4114,-0.4036,-0.4026,-0.3953,-0.3909,-0.3827,-0.3797,-0.3682,-0.3661,-0.3636,-0.3627,-0.3633,-0.3636,-0.3597,-0.3602,-0.362,-0.3621,-0.3622,-0.3623,0,-0.4558,-0.4519,-0.4402,-0.4324,-0.4302,-0.4228,-0.4159,-0.4092,-0.4056,-0.3958,-0.3933,-0.3874,-0.3777,-0.3733,-0.3614,-0.3593,-0.346,-0.3461,-0.3485,-0.3481,-0.3409,-0.3414,-0.3195,-0.3162,-0.3343,-0.3341,-0.334,0,-0.4474,-0.4404,-0.4318,-0.4266,-0.4224,-0.4141,-0.4086,-0.4052,-0.3994,-0.3903,-0.3846,-0.375,-0.367,-0.3515,-0.3459,-0.3366,-0.3361,-0.3291,-0.3347,-0.3353,-0.3352,-0.3355,-0.3344,-0.3279,-0.3277,-0.3276,-0.3275,0,-0.4326,-0.431,-0.4233,-0.4147,-0.4082,-0.4012,-0.3944,-0.3901,-0.3856,-0.3791,-0.3693,-0.3631,-0.3509,-0.3411,-0.3314,-0.3266,-0.3259,-0.3258,-0.3235,-0.3238,-0.3252,-0.3237,-0.3451,-0.3262,-0.3263,-0.3264,-0.3265,-0.3265,-0.4224,-0.4159,-0.4087,-0.4,-0.3945,-0.3881,-0.3812,-0.3768,-0.3687,-0.3585,-0.357,-0.3464,-0.3387,-0.3256,-0.3205,-0.3118,-0.3134,-0.3103,-0.3094,-0.3085,-0.3078,-0.3271,-0.3101,-0.3101,-0.3102,-0.3102,-0.3102,0,-0.407,-0.4024,-0.3944,-0.3849,-0.3778,-0.3784,-0.3707,-0.3646,-0.3554,-0.3484,-0.3406,-0.3291,-0.3195,-0.3131,-0.3033,-0.2975,-0.2969,-0.295,-0.295,-0.2938,-0.3072,-0.3099,-0.2956,-0.2956,-0.2956,-0.2956,-0.2956,-0.2956,-0.3982,-0.3871,-0.3846,-0.3705,-0.3659,-0.3556,-0.3511,-0.3449,-0.3393,-0.3265,-0.3186,-0.3147,-0.3077,-0.2973,-0.2883,-0.2867,-0.2828,-0.2807,-0.279,-0.2915,-0.293,-0.2944,-0.2969,-0.28,-0.28,-0.2662,-0.2661,-0.266]}]]